Location: Treviso
(45.6669°N, 12.2430°E)
Time: 03:22:10
(UTC+02:00)

ISS - Pass Details

Date: 17 September 2018
Orbit: 403 x 408 km, 51.6° (Epoch: 26 September)

Event Time Altitude Azimuth Distance (km) Brightness Sun altitude
Exits shadow 04:54:39 37° 145° (SE) 644 -2.8 -20.4°
Drops below altitude 10° 04:56:49 10° 130° (SE) 1,455 -0.7 -20.1°
Sets 04:58:53 0° 128° (SE) 2,310 0.4 -19.8°
